When you browse on this site, cookies collect data to enhance your experience and personalize the content and advertising you see.
Visit our Privacy Policy to learn more. By continuing to use the site, you agree to this use of cookies and data.
  • In Czech Republic
  • List of Countries
  • For 7 days
  • Water Temperature
  • Weather Map
  • Weather Widgets
  • user-avatar
    Login

    Hourly Weather Marrakesh

    Today, 16 September, Monday

    Time Temperature Precipitation Wind Pressure Humidity
    00:00 +26°C° 0 mm 1 mps 724 mmHg 51%
    01:00 +25°C° 0 mm 1 mps 724 mmHg 53%
    02:00 +25°C° 0 mm 1 mps 723 mmHg 56%
    03:00 +25°C° 0 mm 1 mps 723 mmHg 57%
    04:00 +24°C° 0 mm 1 mps 723 mmHg 58%
    05:00 +24°C° 0 mm 1 mps 723 mmHg 59%
    06:00 +25°C° 0 mm 1 mps 724 mmHg 54%
    07:00 +26°C° 0 mm 1 mps 724 mmHg 49%
    08:00 +27°C° 0 mm 1 mps 725 mmHg 44%
    09:00 +29°C° 0 mm 1 mps 724 mmHg 38%
    10:00 +31°C° 0 mm 1 mps 724 mmHg 33%
    11:00 +34°C° 0 mm 2 mps 724 mmHg 27%
    12:00 +35°C° 0 mm 2 mps 724 mmHg 24%
    13:00 +36°C° 0 mm 2 mps 724 mmHg 21%
    14:00 +37°C° 0 mm 2 mps 723 mmHg 18%
    15:00 +37°C° 0 mm 2 mps 723 mmHg 18%
    16:00 +36°C° 0 mm 2 mps 723 mmHg 18%
    17:00 +35°C° 0 mm 1 mps 723 mmHg 19%
    18:00 +35°C° 0 mm 2 mps 724 mmHg 21%
    19:00 +34°C° 0 mm 2 mps 724 mmHg 24%
    20:00 +32°C° 0 mm 2 mps 724 mmHg 27%
    21:00 +31°C° 0 mm 2 mps 724 mmHg 31%
    22:00 +30°C° 0 mm 2 mps 724 mmHg 35%
    23:00 +29°C° 0 mm 2 mps 724 mmHg 39%

    Tomorrow, 17 September, Tuesday

    Time Temperature Precipitation Wind Pressure Humidity
    00:00 +28°C° 0 mm 2 mps 723 mmHg 42%
    01:00 +28°C° 0 mm 2 mps 723 mmHg 44%
    02:00 +27°C° 0 mm 1 mps 722 mmHg 46%
    03:00 +27°C° 0 mm 1 mps 722 mmHg 48%
    04:00 +26°C° 0 mm 1 mps 722 mmHg 50%
    05:00 +26°C° 0 mm 1 mps 722 mmHg 52%
    06:00 +26°C° 0 mm 1 mps 722 mmHg 49%
    07:00 +27°C° 0 mm 1 mps 723 mmHg 46%
    08:00 +28°C° 0 mm 1 mps 723 mmHg 44%
    09:00 +30°C° 0 mm 1 mps 723 mmHg 39%
    10:00 +31°C° 0 mm 1 mps 723 mmHg 34%
    11:00 +34°C° 0 mm 2 mps 723 mmHg 29%
    12:00 +35°C° 0 mm 2 mps 722 mmHg 27%
    13:00 +36°C° 0 mm 3 mps 722 mmHg 25%
    14:00 +37°C° 0 mm 3 mps 722 mmHg 23%
    15:00 +36°C° 0 mm 4 mps 722 mmHg 23%
    16:00 +36°C° 0 mm 4 mps 722 mmHg 23%
    17:00 +35°C° 0 mm 4 mps 722 mmHg 23%
    18:00 +33°C° 0 mm 4 mps 722 mmHg 30%
    19:00 +30°C° 0 mm 3 mps 723 mmHg 37%
    20:00 +28°C° 0 mm 3 mps 723 mmHg 44%
    21:00 +27°C° 0 mm 3 mps 723 mmHg 46%
    22:00 +27°C° 0 mm 2 mps 723 mmHg 48%
    23:00 +26°C° 0 mm 2 mps 723 mmHg 50%

    Day after tomorrow, 18 September, Wednesday

    Time Temperature Precipitation Wind Pressure Humidity
    00:00 +26°C° 0 mm 2 mps 722 mmHg 51%
    01:00 +25°C° 0 mm 1 mps 722 mmHg 53%
    02:00 +25°C° 0 mm 1 mps 722 mmHg 54%
    03:00 +24°C° 0 mm 1 mps 722 mmHg 56%
    04:00 +24°C° 0 mm 1 mps 722 mmHg 58%
    05:00 +23°C° 0 mm 1 mps 722 mmHg 59%
    06:00 +24°C° 0 mm 1 mps 722 mmHg 56%
    07:00 +25°C° 0 mm 1 mps 722 mmHg 52%
    08:00 +26°C° 0 mm 1 mps 723 mmHg 49%
    09:00 +27°C° 0 mm 1 mps 723 mmHg 44%
    10:00 +29°C° 0 mm 2 mps 723 mmHg 39%
    11:00 +31°C° 0 mm 2 mps 723 mmHg 34%
    12:00 +32°C° 0 mm 2 mps 722 mmHg 31%
    13:00 +34°C° 0 mm 3 mps 722 mmHg 28%
    14:00 +35°C° 0 mm 3 mps 722 mmHg 25%
    15:00 +35°C° 0 mm 3 mps 722 mmHg 25%
    16:00 +34°C° 0 mm 3 mps 722 mmHg 25%
    17:00 +34°C° 0 mm 4 mps 722 mmHg 24%
    18:00 +32°C° 0 mm 4 mps 723 mmHg 34%
    19:00 +29°C° 0 mm 4 mps 723 mmHg 44%
    20:00 +27°C° 0 mm 5 mps 723 mmHg 53%
    21:00 +26°C° 0 mm 4 mps 723 mmHg 55%
    22:00 +26°C° 0 mm 3 mps 723 mmHg 57%
    23:00 +25°C° 0 mm 2 mps 723 mmHg 58%

    19 September, Thursday

    Time Temperature Precipitation Wind Pressure Humidity
    00:00 +25°C° 0 mm 2 mps 723 mmHg 60%
    01:00 +25°C° 0 mm 1 mps 722 mmHg 62%
    02:00 +24°C° 0 mm 1 mps 722 mmHg 63%
    03:00 +24°C° 0 mm 1 mps 722 mmHg 64%
    04:00 +23°C° 0 mm 1 mps 722 mmHg 65%
    05:00 +21°C° 0 mm 0 mps 722 mmHg 67%
    06:00 +24°C° 0 mm 1 mps 722 mmHg 62%
    07:00 +25°C° 0 mm 1 mps 723 mmHg 58%
    08:00 +26°C° 0 mm 1 mps 723 mmHg 54%
    09:00 +28°C° 0 mm 1 mps 723 mmHg 47%
    10:00 +29°C° 0 mm 2 mps 723 mmHg 40%
    11:00 +31°C° 0 mm 2 mps 723 mmHg 33%
    12:00 +33°C° 0 mm 3 mps 723 mmHg 30%
    13:00 +34°C° 0 mm 3 mps 722 mmHg 26%
    14:00 +35°C° 0 mm 4 mps 722 mmHg 23%
    15:00 +35°C° 0 mm 4 mps 722 mmHg 23%
    16:00 +35°C° 0 mm 5 mps 722 mmHg 23%
    17:00 +34°C° 0 mm 5 mps 723 mmHg 23%
    18:00 +32°C° 0 mm 5 mps 723 mmHg 32%
    19:00 +29°C° 0 mm 5 mps 723 mmHg 40%
    20:00 +27°C° 0 mm 5 mps 723 mmHg 48%
    21:00 +27°C° 0 mm 4 mps 723 mmHg 51%
    22:00 +26°C° 0 mm 2 mps 723 mmHg 54%
    23:00 +25°C° 0 mm 1 mps 722 mmHg 56%

    20 September, Friday

    Time Temperature Precipitation Wind Pressure Humidity
    00:00 +25°C° 0 mm 1 mps 722 mmHg 58%
    01:00 +25°C° 0 mm 1 mps 721 mmHg 59%
    02:00 +24°C° 0 mm 1 mps 721 mmHg 60%
    03:00 +24°C° 0 mm 1 mps 721 mmHg 62%
    04:00 +23°C° 0 mm 1 mps 721 mmHg 63%
    05:00 +23°C° 0 mm 1 mps 721 mmHg 64%
    06:00 +23°C° 0 mm 1 mps 721 mmHg 61%
    07:00 +24°C° 0 mm 2 mps 721 mmHg 58%
    08:00 +25°C° 0 mm 2 mps 721 mmHg 56%
    09:00 +26°C° 0 mm 2 mps 721 mmHg 50%
    10:00 +27°C° 0 mm 2 mps 721 mmHg 45%
    11:00 +29°C° 0 mm 2 mps 721 mmHg 39%
    12:00 +30°C° 0 mm 2 mps 721 mmHg 35%
    13:00 +31°C° 0 mm 2 mps 720 mmHg 32%
    14:00 +33°C° 0 mm 3 mps 720 mmHg 28%
    15:00 +31°C° 0 mm 3 mps 720 mmHg 27%
    16:00 +31°C° 0 mm 3 mps 720 mmHg 27%
    17:00 +31°C° 0 mm 3 mps 720 mmHg 26%
    18:00 +30°C° 0 mm 4 mps 721 mmHg 32%
    19:00 +28°C° 0 mm 4 mps 721 mmHg 38%
    20:00 +27°C° 0 mm 5 mps 721 mmHg 44%
    21:00 +26°C° 0 mm 4 mps 721 mmHg 48%
    22:00 +25°C° 0 mm 3 mps 721 mmHg 53%
    23:00 +25°C° 0 mm 2 mps 721 mmHg 57%

    21 September, Saturday

    Time Temperature Precipitation Wind Pressure Humidity
    00:00 +24°C° 0 mm 2 mps 720 mmHg 60%
    01:00 +23°C° 0 mm 2 mps 720 mmHg 63%
    02:00 +23°C° 0 mm 2 mps 720 mmHg 66%
    03:00 +22°C° 0 mm 1 mps 720 mmHg 69%
    04:00 +22°C° 0 mm 1 mps 720 mmHg 71%
    05:00 +21°C° 0 mm 1 mps 720 mmHg 74%
    06:00 +22°C° 0 mm 1 mps 720 mmHg 70%
    07:00 +23°C° 0 mm 1 mps 720 mmHg 67%
    08:00 +23°C° 0 mm 1 mps 721 mmHg 64%
    09:00 +25°C° 0 mm 1 mps 721 mmHg 57%
    10:00 +27°C° 0 mm 1 mps 721 mmHg 50%
    11:00 +28°C° 0 mm 1 mps 721 mmHg 44%
    12:00 +29°C° 0 mm 2 mps 720 mmHg 39%
    13:00 +30°C° 0 mm 2 mps 720 mmHg 34%
    14:00 +32°C° 0 mm 2 mps 720 mmHg 29%
    15:00 +31°C° 0 mm 3 mps 720 mmHg 28%
    16:00 +31°C° 0 mm 3 mps 720 mmHg 28%
    17:00 +31°C° 0 mm 3 mps 721 mmHg 27%
    18:00 +29°C° 0 mm 4 mps 721 mmHg 36%
    19:00 +27°C° 0 mm 4 mps 721 mmHg 45%
    20:00 +25°C° 0 mm 4 mps 722 mmHg 54%
    21:00 +25°C° 0 mm 3 mps 721 mmHg 56%
    22:00 +25°C° 0 mm 2 mps 721 mmHg 57%
    23:00 +24°C° 0 mm 2 mps 721 mmHg 59%
    Show more